User: anonymous   Login
Location: Vanderbilt Beach
(26.2700°N, 81.7900°W)
Time: 08:29:39
(UTC-04:00)
Language:

N. Korean satellite - Orbit

View from above orbital plane
View from above orbital plane
View from above satellite
View from above satellite

Ground track
Ground track

The orbit data is extracted from the following two-line orbital elements,

1 39026U 12072A   21207.52092234  .00002586  00000-0  89009-4 0  9992
2 39026  97.2452 199.4421 0033676 243.6828 116.0953 15.30432060479064
Epoch (UTC): 26 July 2021 12:30:07
Eccentricity: 0.0033676
inclination: 97.2452°
perigee height: 451 km
apogee height: 497 km
right ascension of ascending node: 199.4421°
argument of perigee: 243.6828°
revolutions per day: 15.30432060
mean anomaly at epoch: 116.0953°
orbit number at epoch: 47906

The dashed part of the orbit path shows where the satellite is in the earth's shadow,  

DLR